Flag for U.S.A. Weather past 2 weeks in Stockton, California, U.S.A.

Now
63 °F

Clear.


Feels Like: 63 °F
Forecast: 61 / 86 °F
Wind: No wind

Location: Stockton Metropolitan Airport

Current Time: Jul 23, 2014 at 1:46:37 AM

Latest Report: Jul 23, 2014 at 12:55 AM


Visibility: 10 mi

Pressure: 30.09 "Hg

Humidity: 78%

Dew point: 56 °F

Location of StocktonLocation

Historic Weather in Stockton — Graph

°F

Stockton temperature yesterday

Maximum temperature yesterday: 86 °F (at 4:55 PM)
Minimum temperature yesterday: 63 °F (at 1:55 AM)
Average temperature yesterday: 69 °F

Past Weeks' High & Low Weather Summary

 TemperatureHumidityPressure
High103 °F (Jul 14, 3:55 PM)90% (Jul 18, 4:55 AM)30.07 "Hg (Jul 18, 4:55 AM)
Low60 °F (Jul 12, 3:55 AM)18% (Jul 14, 4:55 PM)29.78 "Hg (Jul 9, 6:55 PM)
Average75 °F56%29.91 "Hg
* Reported Jul 7 10:55 PM — Jul 22 10:55 PM, Stockton, Weather by CustomWeather, © 2014

Note: Actual official high and low records may vary slightly from our data, if they occured in-between our weather recording intervals... More about our weather records

Advertising

Stockton weather history for previous 24 hours

 ConditionsComfort  
Time TempWeatherWind HumidityBarometerVisibility
10:55 PM
Jul 22
67 °FClear.8 mph71%30.07 "Hg10 mi
9:55 PM68 °FClear.10 mph68%30.05 "Hg10 mi
8:55 PM71 °FSunny.14 mph61%30.02 "Hg10 mi
7:55 PM74 °FSunny.15 mph56%30.01 "Hg10 mi
6:55 PM80 °FSunny.16 mph47%29.98 "Hg10 mi
5:55 PM84 °FSunny.15 mph40%29.98 "Hg10 mi
4:55 PM86 °FSunny.12 mph40%29.98 "Hg10 mi
9:55 AM70 °FSunny.7 mph64%30.05 "Hg10 mi
8:55 AM68 °FSunny.7 mph70%30.05 "Hg10 mi
7:55 AM65 °FSunny.7 mph78%30.03 "Hg10 mi
6:55 AM64 °FClear.7 mph84%30.02 "Hg10 mi
5:55 AM63 °FClear.8 mph84%30.00 "Hg10 mi
4:55 AM63 °FClear.6 mph87%30.00 "Hg10 mi
3:55 AM63 °FClear.5 mph87%29.99 "Hg10 mi
2:55 AM64 °FClear.7 mph81%29.99 "Hg10 mi
1:55 AM63 °FClear.7 mph87%29.98 "Hg10 mi
Weather by CustomWeather, © 2014

See weather overviewHow to use our weather pages